Location: Lafig�re
(44.4503°N, 4.0357°E)
Time: 15:00:26
(UTC+00:00)

Vanguard 2 Rocket - Pass Details

Date: 03 February 2021
Orbit: 554 x 3325 km, 32.9° (Epoch: 06 March)

Event Time Altitude Azimuth Distance (km) Brightness Sun altitude
Rises 07:44:40 0° 173° (S) 6,861 12.0 6.3°
Reaches altitude 10° 07:55:23 10° 144° (SE) 6,227 12.7 8.0°
Maximum altitude 07:59:54 11° 131° (SE) 6,175 13.8 8.6°
Drops below altitude 10° 08:04:25 10° 118° (ESE) 6,261 14.0 9.3°
Sets 08:15:03 0° 90° (E) 6,978 12.4 10.9°
